N7NIP Weather Reports


time (UTC)temp
F
wind
direction
speed
knots
gust
knots
rain 1hr
in
rain 24hr
in
rain mn
in
humidity
%
barometer
mb
20260505065622 54 53 1.7 1.7 0.00 0.00 0.00 83 1025.6
20260505065118 55 52 1.7 2.6 0.00 0.00 0.00 82 1025.8
20260505064615 55 44 1.7 2.6 0.00 0.00 0.00 81 1025.6
20260505064114 56 14 0.9 1.7 0.00 0.00 0.00 80 1025.5
20260505063611 56 51 3.5 3.5 0.00 0.00 0.00 79 1025.5
20260505063106 56 42 1.7 1.7 0.00 0.00 0.00 78 1025.4
20260505062603 56 74 1.7 1.7 0.00 0.00 0.00 78 1025.4
20260505062101 56 336 0.0 0.9 0.00 0.00 0.00 79 1025.3
20260505061558 56 57 0.9 1.7 0.00 0.00 0.00 78 1025.3
20260505061056 56 66 0.0 0.0 0.00 0.00 0.00 78 1025.5
20260505060553 57 119 0.0 1.7 0.00 0.00 0.00 76 1025.1
20260505060049 57 93 0.0 0.9 0.00 0.00 0.00 77 1025.5
20260505055545 57 108 1.7 1.7 0.00 0.00 0.00 76 1025.2
20260505055042 57 105 1.7 1.7 0.00 0.00 0.00 76 1025.3
20260505054539 57 79 0.0 0.9 0.00 0.00 0.00 76 1025.0
20260505054037 57 66 0.0 0.9 0.00 0.00 0.00 76 1025.1
20260505053534 57 55 0.9 1.7 0.00 0.00 0.00 76 1025.0
20260505053031 57 95 0.0 1.7 0.00 0.00 0.00 75 1025.0
20260505052528 58 76 0.0 1.7 0.00 0.00 0.00 74 1025.0
20260505052025 58 93 1.7 1.7 0.00 0.00 0.00 74 1025.1
20260505051522 59 101 1.7 1.7 0.00 0.00 0.00 73 1025.0
20260505051020 59 87 1.7 1.7 0.00 0.00 0.00 72 1024.9
20260505050518 59 74 1.7 1.7 0.00 0.00 0.00 71 1024.9
20260505041445 58 55 1.7 1.7 0.00 0.00 0.00 75 1024.5
20260505040943 59 65 1.7 1.7 0.00 0.00 0.00 75 1024.6
20260505040440 59 2 0.9 1.7 0.00 0.00 0.00 74 1024.6
20260505035937 60 51 1.7 1.7 0.00 0.00 0.00 71 1024.6
20260505035433 60 29 0.0 0.9 0.00 0.00 0.00 70 1024.4
20260505034930 60 45 1.7 2.6 0.00 0.00 0.00 69 1024.4
20260505034426 61 51 1.7 1.7 0.00 0.00 0.00 67 1024.3
20260505033924 62 46 1.7 1.7 0.00 0.00 0.00 65 1024.2
20260505033420 62 58 1.7 1.7 0.00 0.00 0.00 64 1024.2
20260505032919 63 352 0.0 1.7 0.00 0.00 0.00 63 1024.3
20260505032415 63 3 0.9 1.7 0.00 0.00 0.00 63 1024.1
20260505031912 63 38 0.0 1.7 0.00 0.00 0.00 62 1024.1
20260505031409 63 326 0.0 2.6 0.00 0.00 0.00 61 1023.9
20260505030906 64 36 0.9 1.7 0.00 0.00 0.00 59 1024.1
20260505030402 65 37 0.0 0.9 0.00 0.00 0.00 58 1024.1
20260505025857 65 36 0.0 0.9 0.00 0.00 0.00 56 1023.9
20260505025355 66 37 1.7 1.7 0.00 0.00 0.00 55 1023.8
20260505024854 67 17 0.9 1.7 0.00 0.00 0.00 52 1023.7
20260505024351 68 309 0.0 1.7 0.00 0.00 0.00 49 1023.9
20260505023848 68 44 0.0 1.7 0.00 0.00 0.00 48 1023.9
20260505023345 69 311 0.0 2.6 0.00 0.00 0.00 48 1023.9
20260505022842 69 103 0.9 5.2 0.00 0.00 0.00 46 1023.8
20260505022339 70 253 0.0 3.5 0.00 0.00 0.00 46 1023.9
20260505021836 70 354 1.7 3.5 0.00 0.00 0.00 47 1023.7
20260505021332 71 235 0.0 5.2 0.00 0.00 0.00 48 1023.7
20260505020828 72 327 2.6 2.6 0.00 0.00 0.00 46 1023.7
20260505020324 73 356 0.0 1.7 0.00 0.00 0.00 45 1023.7
20260505015821 73 72 1.7 1.7 0.00 0.00 0.00 45 1023.7
20260505015318 74 307 1.7 2.6 0.00 0.00 0.00 43 1023.6
20260505014816 75 49 1.7 3.5 0.00 0.00 0.00 42 1023.5
20260505014312 76 338 2.6 5.2 0.00 0.00 0.00 40 1023.7
20260505013809 77 56 0.0 1.7 0.00 0.00 0.00 38 1023.6
20260505013306 77 46 3.5 3.5 0.00 0.00 0.00 36 1023.7
20260505012805 78 17 2.6 3.5 0.00 0.00 0.00 34 1023.6
20260505012304 78 300 1.7 2.6 0.00 0.00 0.00 34 1023.6
20260505011757 77 42 2.6 3.5 0.00 0.00 0.00 35 1023.7
20260505011255 78 292 1.7 3.5 0.00 0.00 0.00 38 1023.5
20260505010750 77 175 0.9 5.2 0.00 0.00 0.00 38 1023.6
20260505010247 77 346 2.6 5.2 0.00 0.00 0.00 38 1023.7
20260505005743 77 42 1.7 6.1 0.00 0.00 0.00 36 1023.7
20260505005240 78 345 4.3 7.8 0.00 0.00 0.00 36 1023.8
20260505004737 79 223 5.2 5.2 0.00 0.00 0.00 35 1023.7
20260505004233 78 19 0.0 3.5 0.00 0.00 0.00 37 1023.8
20260505003731 78 17 1.7 7.0 0.00 0.00 0.00 36 1024.0
20260505003229 79 15 3.5 5.2 0.00 0.00 0.00 36 1023.6
20260505002725 78 343 6.1 7.8 0.00 0.00 0.00 38 1023.7
20260505002222 78 38 0.9 8.7 0.00 0.00 0.00 41 1023.7
20260505001720 78 74 0.9 4.3 0.00 0.00 0.00 38 1023.6
20260505001217 78 261 1.7 5.2 0.00 0.00 0.00 37 1023.8
20260505000714 79 264 1.7 7.0 0.00 0.00 0.00 37 1023.9
20260505000212 79 345 0.0 3.5 0.00 0.00 0.00 39 1023.7
20260504235708 79 67 0.9 7.8 0.00 0.00 0.00 38 1023.7
20260504235204 80 299 0.9 3.5 0.00 0.00 0.00 36 1023.6
20260504234702 80 250 3.5 3.5 0.00 0.00 0.00 37 1023.9
20260504234159 80 319 1.7 7.0 0.00 0.00 0.00 35 1023.9
20260504233654 80 38 1.7 2.6 0.00 0.00 0.00 34 1023.9
20260504233150 79 19 1.7 3.5 0.00 0.00 0.00 38 1023.8
20260504232648 79 292 2.6 6.1 0.00 0.00 0.00 36 1023.9
20260504232145 78 348 7.8 7.8 0.00 0.00 0.00 36 1024.0
20260504231642 79 75 2.6 6.1 0.00 0.00 0.00 38 1024.1
20260504231138 79 27 1.7 6.1 0.00 0.00 0.00 38 1024.1
20260504230634 80 34 5.2 5.2 0.00 0.00 0.00 34 1023.9
20260504230133 80 100 1.7 5.2 0.00 0.00 0.00 36 1024.1
20260504225631 80 311 1.7 4.3 0.00 0.00 0.00 34 1024.2
20260504225127 80 207 3.5 4.3 0.00 0.00 0.00 37 1023.9
20260504224624 79 244 2.6 5.2 0.00 0.00 0.00 34 1024.1
20260504224121 79 359 6.1 6.1 0.00 0.00 0.00 36 1024.0
20260504223618 80 338 1.7 7.0 0.00 0.00 0.00 33 1024.2
20260504223114 79 135 0.9 3.5 0.00 0.00 0.00 33 1024.1
20260504222611 79 31 1.7 6.1 0.00 0.00 0.00 40 1024.2
20260504222108 79 70 0.9 1.7 0.00 0.00 0.00 35 1024.2
20260504221605 78 9 7.0 7.8 0.00 0.00 0.00 39 1024.4
20260504221102 79 340 2.6 5.2 0.00 0.00 0.00 36 1024.4
20260504220558 78 66 2.6 6.1 0.00 0.00 0.00 35 1024.3
20260504220055 78 208 1.7 3.5 0.00 0.00 0.00 37 1024.4
20260504215552 78 236 4.3 5.2 0.00 0.00 0.00 35 1024.7
20260504215050 78 165 1.7 7.8 0.00 0.00 0.00 37 1024.6
20260504214545 78 271 2.6 3.5 0.00 0.00 0.00 36 1024.6
20260504214042 78 12 1.7 3.5 0.00 0.00 0.00 38 1024.6
20260504213538 77 246 3.5 5.2 0.00 0.00 0.00 41 1024.9
20260504213036 78 66 1.7 7.0 0.00 0.00 0.00 37 1024.8
20260504212531 78 126 1.7 3.5 0.00 0.00 0.00 38 1024.8
20260504212029 78 358 1.7 3.5 0.00 0.00 0.00 39 1024.6
20260504211526 77 2 2.6 3.5 0.00 0.00 0.00 36 1024.8
20260504211023 77 216 4.3 4.3 0.00 0.00 0.00 37 1024.9
20260504210520 77 34 2.6 3.5 0.00 0.00 0.00 35 1024.8
20260504210016 78 15 7.0 10.4 0.00 0.00 0.00 36 1024.7
20260504205514 77 320 1.7 4.3 0.00 0.00 0.00 44 1024.8
20260504205012 77 354 5.2 7.8 0.00 0.00 0.00 37 1024.8
20260504204510 77 35 2.6 3.5 0.00 0.00 0.00 39 1025.0
20260504204009 77 296 2.6 4.3 0.00 0.00 0.00 38 1024.9
20260504203506 76 25 4.3 9.6 0.00 0.00 0.00 38 1024.9
20260504203002 76 180 2.6 2.6 0.00 0.00 0.00 37 1025.0
20260504202458 75 227 2.6 4.3 0.00 0.00 0.00 39 1024.9
20260504201955 75 30 7.0 7.0 0.00 0.00 0.00 38 1025.0
20260504201453 76 29 5.2 6.1 0.00 0.00 0.00 38 1025.0
20260504200950 75 258 1.7 4.3 0.00 0.00 0.00 38 1025.2
20260504200447 76 9 2.6 4.3 0.00 0.00 0.00 39 1025.2
20260504195943 76 0 2.6 4.3 0.00 0.00 0.00 37 1025.2
20260504195439 75 25 1.7 3.5 0.00 0.00 0.00 44 1025.2
20260504194936 75 250 6.1 7.8 0.00 0.00 0.00 39 1025.2
20260504194432 75 157 1.7 3.5 0.00 0.00 0.00 44 1025.1
20260504193928 75 192 4.3 4.3 0.00 0.00 0.00 42 1025.2
20260504193426 75 305 0.9 3.5 0.00 0.00 0.00 45 1024.8
20260504192924 75 299 3.5 7.8 0.00 0.00 0.00 46 1025.0
20260504192421 75 302 2.6 6.1 0.00 0.00 0.00 47 1025.0
20260504191920 75 203 4.3 5.2 0.00 0.00 0.00 45 1025.1
20260504191418 75 37 1.7 3.5 0.00 0.00 0.00 44 1025.1
20260504190913 75 115 4.3 6.1 0.00 0.00 0.00 42 1025.0
20260504190409 75 87 1.7 1.7 0.00 0.00 0.00 44 1024.9
20260504185906 74 159 0.9 7.8 0.00 0.00 0.00 44 1024.9
20260504185403 74 35 0.9 3.5 0.00 0.00 0.00 45 1025.2
20260504184858 74 238 0.9 5.2 0.00 0.00 0.00 44 1025.2
20260504184354 73 142 3.5 6.1 0.00 0.00 0.00 49 1025.0
20260504183850 74 126 7.0 7.8 0.00 0.00 0.00 44 1025.2
20260504183348 73 122 7.8 10.4 0.00 0.00 0.00 47 1025.1
20260504182845 73 114 2.6 3.5 0.00 0.00 0.00 50 1025.3
20260504182343 73 272 1.7 6.1 0.00 0.00 0.00 45 1025.3
20260504181839 73 135 2.6 5.2 0.00 0.00 0.00 44 1025.3
20260504181337 73 43 2.6 3.5 0.00 0.00 0.00 46 1025.1
20260504180836 73 18 3.5 3.5 0.00 0.00 0.00 43 1025.1
20260504180334 73 242 0.9 3.5 0.00 0.00 0.00 44 1025.4
20260504175832 71 50 0.9 1.7 0.00 0.00 0.00 46 1025.2
20260504175328 71 99 2.6 4.3 0.00 0.00 0.00 45 1025.1
20260504174827 71 86 1.7 5.2 0.00 0.00 0.00 50 1025.1
20260504174324 71 95 3.5 6.1 0.00 0.00 0.00 52 1025.3
20260504173820 71 166 2.6 3.5 0.00 0.00 0.00 48 1025.1
20260504173317 71 232 2.6 3.5 0.00 0.00 0.00 47 1025.1
20260504172814 71 334 1.7 4.3 0.00 0.00 0.00 49 1025.1
20260504172311 71 220 2.6 4.3 0.00 0.00 0.00 49 1025.1
20260504171807 71 271 2.6 3.5 0.00 0.00 0.00 49 1025.2
20260504171304 71 210 0.9 2.6 0.00 0.00 0.00 49 1025.1
20260504170801 71 252 2.6 3.5 0.00 0.00 0.00 48 1025.0
20260504170258 70 201 0.0 3.5 0.00 0.00 0.00 50 1024.9
20260504160216 70 87 0.9 1.7 0.00 0.00 0.00 52 1025.1
20260504151144 62 102 0.9 2.6 0.00 0.00 0.00 65 1024.7
20260504150642 60 109 1.7 2.6 0.00 0.00 0.00 71 1024.6
20260504150138 59 128 0.9 1.7 0.00 0.00 0.00 77 1024.6
20260504141107 51 102 1.7 1.7 0.00 0.00 0.00 94 1024.3
20260504140604 51 63 0.9 2.6 0.00 0.00 0.00 94 1024.2
20260504130528 49 81 1.7 2.6 0.00 0.00 0.00 97 1023.9
20260504110415 50 88 1.7 1.7 0.00 0.00 0.00 94 1023.9
20260504100332 50 84 1.7 1.7 0.00 0.00 0.00 94 1023.8
20260504081726 51 71 1.7 1.7 0.00 0.00 0.00 88 1024.0
20260504081222 51 63 1.7 1.7 0.00 0.00 0.00 86 1023.9
20260504080718 53 75 1.7 1.7 0.00 0.00 0.00 84 1023.9
20260504080215 53 66 1.7 2.6 0.00 0.00 0.00 83 1023.8
20260504070143 54 116 0.9 1.7 0.00 0.00 0.00 76 1024.2